Location: Hains Lake
(37.8540°N, 99.8578°W)
Time: 11:46:32
(UTC+00:00)

Courier 1B Rocket - All Passes

Search period start: 18 April 2021 00:00
Search period end: 28 April 2021 00:00
Orbit: 920 x 1202 km, 28.2° (Epoch: 17 April)

Date Brightness Start Highest point End Pass type
(mag) Time Alt. Az. Time Alt. Az. Time Alt. Az.
18 Apr - 01:20:31 10° S 01:23:58 14° SSE 01:27:31 10° ESE daylight
18 Apr - 03:10:33 10° SW 03:16:33 31° SSE 03:22:56 10° ESE visible
18 Apr - 05:02:53 10° WSW 05:09:35 40° S 05:16:39 10° ESE visible
18 Apr - 06:56:13 10° WSW 07:02:43 32° SSW 07:09:24 10° SE night (unlit)
18 Apr - 08:51:19 10° WSW 08:55:35 16° SSW 08:59:52 10° S night (unlit)
19 Apr - 02:10:15 10° SSW 02:15:40 25° SSE 02:21:22 10° ESE visible
19 Apr - 04:02:05 10° WSW 04:08:32 39° S 04:15:23 10° ESE visible
19 Apr - 05:55:04 10° WSW 06:01:38 36° S 06:08:32 10° SE visible
19 Apr - 07:49:15 10° WSW 07:54:37 21° SSW 08:00:05 10° SSE night (unlit)
20 Apr - 01:10:19 10° SSW 01:14:51 19° SSE 01:19:34 10° ESE daylight
20 Apr - 03:01:25 10° SW 03:07:32 35° S 03:14:04 10° ESE visible
20 Apr - 04:54:03 10° WSW 05:00:34 38° S 05:07:29 10° ESE visible
20 Apr - 06:47:41 10° WSW 06:53:37 26° SSW 06:59:44 10° SE night (unlit)
20 Apr - 08:45:30 10° SW 08:46:23 10° SSW 08:47:15 10° SSW night (unlit)
21 Apr - 00:11:02 10° S 00:14:06 14° SSE 00:17:14 10° SE daylight
21 Apr - 02:00:56 10° SW 02:06:37 30° SSE 02:12:39 10° ESE visible
21 Apr - 03:53:12 10° WSW 03:59:33 39° S 04:06:20 10° ESE visible
21 Apr - 05:46:25 10° WSW 05:52:36 31° SSW 05:59:05 10° SE visible
21 Apr - 07:41:29 10° WSW 07:45:27 15° SSW 07:49:29 10° S night (unlit)
22 Apr - 01:00:41 10° SSW 01:05:46 24° SSE 01:11:09 10° ESE daylight
22 Apr - 02:52:27 10° WSW 02:58:34 37° S 03:05:06 10° ESE visible
22 Apr - 04:45:21 10° WSW 04:51:34 34° S 04:58:12 10° SE visible
22 Apr - 06:39:27 10° WSW 06:44:30 20° SSW 06:49:43 10° SSE night (unlit)
23 Apr - 00:00:46 10° SSW 00:05:01 19° SSE 00:09:24 10° ESE daylight
23 Apr - 01:51:50 10° SW 01:57:38 34° S 02:03:49 10° ESE visible
23 Apr - 03:44:25 10° WSW 03:50:35 37° S 03:57:10 10° ESE visible
23 Apr - 05:37:58 10° WSW 05:43:32 25° SSW 05:49:22 10° SSE visible
23 Apr - 23:01:30 10° S 23:04:17 13° SSE 23:07:08 10° SE daylight
24 Apr - 00:51:22 10° SW 00:56:47 29° SSE 01:02:29 10° ESE daylight
24 Apr - 02:43:36 10° WSW 02:49:37 37° S 02:56:03 10° ESE visible
24 Apr - 04:36:46 10° WSW 04:42:35 29° SSW 04:48:43 10° SE visible
24 Apr - 06:31:54 10° SW 06:35:23 14° SSW 06:38:57 10° S night (unlit)
24 Apr - 23:51:06 10° SSW 23:55:59 24° SSE 00:01:03 10° ESE daylight
25 Apr - 01:42:53 10° WSW 01:48:42 36° S 01:54:53 10° ESE visible
25 Apr - 03:35:45 10° WSW 03:41:37 33° S 03:47:53 10° SE visible
25 Apr - 05:29:51 10° WSW 05:34:28 18° SSW 05:39:16 10° SSE visible
25 Apr - 22:51:10 10° SSW 22:55:15 18° SSE 22:59:25 10° ESE daylight
26 Apr - 00:42:17 10° SW 00:47:51 33° S 00:53:41 10° ESE daylight
26 Apr - 02:34:51 10° WSW 02:40:42 35° S 02:46:54 10° ESE visible
26 Apr - 04:28:23 10° WSW 04:33:33 23° SSW 04:38:59 10° SSE visible
26 Apr - 21:51:50 10° S 21:54:32 13° SSE 21:57:16 10° SE daylight
26 Apr - 23:41:48 10° SW 23:47:02 28° SSE 23:52:27 10° ESE daylight
27 Apr - 01:34:02 10° WSW 01:39:48 36° S 01:45:52 10° ESE daylight
27 Apr - 03:27:13 10° WSW 03:32:40 27° SSW 03:38:25 10° SE visible
27 Apr - 05:22:34 10° SW 05:25:23 13° SSW 05:28:16 10° S visible
27 Apr - 22:41:29 10° SSW 22:46:16 23° SSE 22:51:08 10° ESE daylight
